This demonstration page uses our WeatherBlox Daily Observations layout. Learn more.

38.88101, -77.10428

Hourly Observations for August 8, 2020

Temp ( °F °C ) Dew Point ( °F °C ) Humidity (%) Winds ( mph kmh ) Pressure ( in mb ) Visibility ( mi km ) Precip ( " mm )
12:52 am 00:52 Mostly Cloudy 74 23.3 71 21.7 91 91 SSE 5 7 30.12 1020 10 16.0934 0 0
1:52 am 01:52 Mostly Cloudy 74 23.3 70 21.1 88 88 Calm 30.1 1019 10 16.0934 0 0
2:35 am 02:35 Mostly Cloudy 74 23.3 70 21.1 88 88 NNW 5 7 30.1 1019 10 16.0934 0 0
2:44 am 02:44 Cloudy 74 23.3 71 21.7 91 91 N 5 7 30.1 1019 10 16.0934 0 0
2:52 am 02:52 Cloudy 74 23.3 71 21.7 91 91 N 3 6 30.1 1019 10 16.0934 0 0
3:27 am 03:27 Mostly Cloudy 74 23.3 71 21.7 91 91 ENE 10 17 30.11 1020 10 16.0934 0 0
3:52 am 03:52 Cloudy 73 22.8 71 21.7 94 94 NE 9 15 30.11 1020 10 16.0934 0 0
4:28 am 04:28 Cloudy 73 22.8 71 21.7 94 94 NNE 8 13 30.12 1020 10 16.0934 0 0
4:52 am 04:52 Cloudy 73 22.8 70 21.1 90 90 NE 9 15 30.12 1020 10 16.0934 0 0
5:06 am 05:06 Cloudy 73 22.8 70 21.1 90 90 NE 7 11 30.13 1020 10 16.0934 0 0
5:25 am 05:25 Cloudy 73 22.8 70 21.1 90 90 ENE 8 13 30.13 1020 10 16.0934 0 0
5:52 am 05:52 Cloudy 73 22.8 69 20.6 87 87 NE 10 17 30.13 1020 10 16.0934 0 0
6:32 am 06:32 Cloudy 73 22.8 70 21.1 90 90 NNE 8 13 30.14 1021 10 16.0934 0 0
6:52 am 06:52 Cloudy 73 22.8 70 21.1 90 90 NNE 8 13 30.15 1021 10 16.0934 0 0
6:54 am 06:54 Cloudy 73 22.8 70 21.1 90 90 NNE 8 13 30.15 1021 10 16.0934 0 0
7:08 am 07:08 Cloudy 73 22.8 70 21.1 90 90 NE 7 11 30.15 1021 10 16.0934 0 0
7:16 am 07:16 Cloudy 73 22.8 70 21.1 90 90 NE 8 13 30.16 1021 10 16.0934 0 0
7:46 am 07:46 Cloudy 73 23 70 21 89 89 NNE 8 13 30.16 1021 10 16.0934 0 0
7:52 am 07:52 Cloudy 74 23.3 70 21.1 88 88 NNE 8 13 30.16 1021 10 16.0934 0 0
8:52 am 08:52 Cloudy 75 23.9 70 21.1 84 84 ENE 6 9 30.17 1022 10 16.0934 0 0
9:28 am 09:28 Cloudy 76 24.4 70 21.1 82 82 NE 6 9 30.17 1022 10 16.0934 0 0
9:52 am 09:52 Mostly Cloudy 78 25.6 71 21.7 79 79 NE 3 6 30.17 1022 10 16.0934 0 0
10:52 am 10:52 Cloudy 79 26.1 69 20.6 72 72 Calm 30.17 1022 10 16.0934 0 0
11:52 am 11:52 Cloudy 79 26.1 69 20.6 72 72 Calm 30.17 1022 10 16.0934 0 0
12:23 pm 12:23 Cloudy 80 26.7 70 21.1 71 71 Calm 30.17 1022 10 16.0934 0 0
12:52 pm 12:52 Cloudy 80 26.7 69 20.6 69 69 Calm 30.16 1022 10 16.0934 0 0
1:52 pm 13:52 Cloudy 81 27.2 69 20.6 67 67 Calm 30.16 1021 10 16.0934 0 0
2:52 pm 14:52 Mostly Cloudy 82 27.8 70 21.1 67 67 E 3 6 30.15 1021 10 16.0934 0 0
3:52 pm 15:52 Mostly Cloudy 84 28.9 69 20.6 61 61 Calm 30.13 1020 10 16.0934 0 0
4:52 pm 16:52 Partly Cloudy 85 29.4 70 21.1 61 61 NNE 5 7 30.12 1020 10 16.0934 0 0
5:52 pm 17:52 Mostly Sunny 86 30 69 20.6 57 57 Calm 30.11 1020 10 16.0934 0 0
6:52 pm 18:52 Mostly Sunny 86 30 68 20 55 55 Calm 30.1 1019 10 16.0934 0 0
7:52 pm 19:52 Mostly Sunny 83 28.3 68 20 61 61 Calm 30.11 1020 10 16.0934 0 0
8:52 pm 20:52 Mostly Clear 80 26.7 72 22.2 76 76 SSE 7 11 30.14 1021 10 16.0934 0 0
9:52 pm 21:52 Clear 79 26.1 72 22.2 79 79 SE 6 9 30.15 1021 10 16.0934 0 0
10:52 pm 22:52 Mostly Clear 77 25 72 22.2 85 85 S 6 9 30.14 1021 10 16.0934 0 0
11:52 pm 23:52 Mostly Clear 77 25 72 22.2 85 85 S 3 6 30.15 1021 10 16.0934 0 0

Powered by AerisWeather